Plymouth Peak Pro Challenge - Trainer 40 Miles

Station: Trainer 40 Miles - T Race

Distance: 40 Miles    

Release: 08-Oct-2019 08:00

Weather Release:    Arrival:

Wind at Release:     Wind at Arrival:

Temp at Release: °    Temp at Arrival: °

Lofts: 99

Birds: 436

Clocked: 357

Good Luck to Everyone!
Drops Pos Breeder Pigeon Name Color Sex Ent Arrival Speed To Win Elg PdAOCPed
1 Genesis Syndicate Loft - AZ 0787-AU19-GENE BB H 1 08:49:11.70 1431.040 00:00:00 Yes
2 Rdm Syndicate - ON 10924-AU19-AA BB H 1 08:49:12.30 1430.749 00:00:01 Yes
3 M2 Loft - UT 0043-AU19-UVI BC H 1 08:49:12.90 1430.458 00:00:01 Yes
4 Skylinerpl.Com - UT 0191-AU19-UVI BB C 1 08:49:13.70 1430.071 00:00:02 Yes
5 Genesis Syndicate Loft - AZ 0733-AU19-GENE BC H 2 08:49:17.20 1428.378 00:00:06 Yes
6 Bieche-Stevenson - CA 9308-AU19-BIEC MLY C 1 08:49:20.80 1426.641 00:00:09 Yes
7 Wessel Family Lofts - CA 3019-AU19-ARC BB C 1 08:49:22.70 1425.727 00:00:11 Yes
8 Kolvenbag & Son - PA 1340-IF19-KOLV BC C 1 08:49:23.10 1425.534 00:00:11 Yes
9 Fassio Loft - UT 9165-AU19-SLI Eleven North BB H 1 08:49:23.50 1425.342 00:00:12 Yes
10 Wessel Family Lofts - CA 3006-AU19-ARC BB H 2 08:49:24.00 1425.101 00:00:12 Yes
11 High West Loft - UT 0438-AU19-UVI BCSM C 1 08:49:25.90 1424.188 00:00:14 Yes
12 Racing Pigeon Digest - MT 1234-AU19-DIGE BC H 1 08:49:26.40 1423.948 00:00:15 Yes
13 Sweeney Family Loft - WI 0801-AU19-MWC BBWF H 1 08:49:27.00 1423.660 00:00:15 Yes
14 Tex-Mex Loft - TX 0113-AU19-TXMX La Llorona BBTC H 1 08:49:27.10 1423.612 00:00:15 Yes
15 Kolvenbag & Son - PA 1321-IF19-KOLV BC H 2 08:49:27.60 1423.372 00:00:16 Yes
16 De La O-Siino - CA 9032-AU19-COOK BB H 1 08:49:29.00 1422.701 00:00:17 Yes
17 A D L Loft - IL 0059-AU19-RRV BCWF C 1 08:49:29.60 1422.414 00:00:18 Yes
18 Kolvenbag & Son - PA 0321-IF19-PHX BC H 3 08:49:30.00 1422.222 00:00:18 Yes
19 Eastern Pearl Loft - VA 0550-AU19-EPL 🈚️量550=934x615 BBWF C 1 08:49:31.00 1421.744 00:00:19 Yes
20 P N W Challenge - ID 0020-AU19-PNWC “PAIR #2” BBWF H 1 08:49:31.30 1421.600 00:00:20 Yes
21 S F L - WV 0072-AU19-SFL Pair 40 BB H 1 08:49:31.90 1421.313 00:00:20 Yes
22 Ken Christopher - UT 9269-AU19-GS UNKN H 1 08:49:32.00 1421.265 00:00:20 Yes
23 Drama Queen Loft - TX 0964-AU19-GCI BB H 1 08:49:32.30 1421.122 00:00:21 Yes
24 Brook Loft - NC 0610-IF19-CCF BBTC H 1 08:49:32.80 1420.883 00:00:21 Yes
25 M & Y Connection - MI 0023-AU19-MY 166 x 8000 BBPN C 1 08:49:34.60 1420.023 00:00:23 Yes
26 Kolvenbag & Son - PA 1320-IF19-KOLV BCWF H 4 08:49:34.90 1419.880 00:00:23 Yes
27 Marengo Creek Farms - AL 3299-AU19-MCF BB H 1 08:49:35.80 1419.450 00:00:24 Yes
28 Ken Christopher - UT 9338-AU19-GS DC C 2 08:49:37.40 1418.687 00:00:26 Yes
29 Fleet Washington - DC 1908-AU19-FLEE BB C 1 08:49:37.90 1418.449 00:00:26 Yes
30 Marengo Creek Farms - AL 3383-AU19-MCF BC H 2 08:49:38.30 1418.259 00:00:27 Yes
31 A D L Loft - IL 0053-AU19-RRV BCTC H 2 08:49:40.60 1417.164 00:00:29 Yes
32 Rory Smith - UT 9229-AU19-CDR BC H 1 08:49:42.20 1416.404 00:00:31 Yes
33 Skylinerpl.Com - UT 0858-AU19-UVI BC H 2 08:49:42.80 1416.119 00:00:31 Yes
34 Kolvenbag & Son - PA 1337-IF19-KOLV BC H 5 08:49:44.80 1415.170 00:00:33 Yes
35 Flying D Loft - TX 0219-AU19-FLYD Laf 921/Flyd 193 BC C 1 08:49:45.40 1414.886 00:00:34 Yes
36 Duvall/Whiteley - UT 1063-AU19-UVI BB H 1 08:49:45.90 1414.649 00:00:34 Yes
37 Ken Christopher - UT 9227-AU19-GS BB C 3 08:49:54.50 1410.586 00:00:43 Yes
38 Ed Kehl - UT 2003-AU19-WGS BCSP H 1 08:49:55.70 1410.021 00:00:44 Yes
39 Columba Loft - GA 9272-AU19-LYNC 7248 X 2115 BB H 1 08:49:59.30 1408.329 00:00:48 Yes
40 Evolution Racing - UT 7361-AU19-OGN BCSP C 1 08:49:59.90 1408.047 00:00:48 Yes
41 Baldwin & Tilson - NC 9037-AU19-TENT 17751-8055 PEN H 1 08:50:02.30 1406.921 00:00:51 Yes
42 Vincent Rooney - VA 9001-IF19-SEA BLK C 1 08:50:06.30 1405.049 00:00:55 Yes
43 A P C Loft - TX 19038-AU19-APC BB H 1 08:50:09.00 1403.789 00:00:57 Yes
44 Tex-Mex Loft - TX 0060-AU19-TXMX Wes BCSP C 2 08:50:09.60 1403.509 00:00:58 Yes
45 A P C Loft - TX 19108-AU19-APC BB H 2 08:50:12.00 1402.390 00:01:00 Yes
46 Jimmy Zheng Loft - MS 0938-AU19-JIMM BB H 1 08:50:14.30 1401.320 00:01:03 Yes
47 Genesis Syndicate Loft - AZ 0003-IF19-GENE BC H 3 08:50:14.40 1401.274 00:01:03 Yes
48 De La O-Siino - CA 9023-AU19-COOK BB H 2 08:50:15.20 1400.902 00:01:04 Yes
49 Genesis Syndicate Loft - AZ 0026-IF19-GENE BB H 4 08:50:15.50 1400.763 00:01:04 Yes
50 Highland Loft - NY 9007-AU19-DZ BB C 1 08:50:16.00 1400.531 00:01:04 Yes
51 B W Loft - ID 19010-AU19-RMR BC H 1 08:50:16.30 1400.391 00:01:05 Yes
52 Kolvenbag & Son - PA 1304-IF19-KOLV DC C 6 08:50:16.40 1400.345 00:01:05 Yes
53 Kolvenbag & Son - PA 1363-IF19-KOLV Polar Marble WTSP H 7 08:50:17.50 1399.834 00:01:06 Yes
54 Nanez Family Lofts - WI 9136-AU19-NANE BB H 1 08:50:19.00 1399.139 00:01:07 Yes
55 Racing Pigeon Mall - WA 0903-AU19-RPM DC H 1 08:50:20.40 1398.490 00:01:09 Yes
56 Genesis Syndicate Loft - AZ 0010-IF19-GENE BCSM H 5 08:50:20.70 1398.351 00:01:09 Yes
57 T B Brothers Loft - MS 12709-AU19-JEDD BBSP H 1 08:50:20.80 1398.305 00:01:09 Yes
58 Gold Star Loft - CA 1615-AU19-STON BBSP C 1 08:50:21.40 1398.027 00:01:10 Yes
59 Horse Heaven Hills - OR 25323-AU19-AA BB H 1 08:50:21.90 1397.796 00:01:10 Yes
60 Holder Serrao - FL 0027-AU19-RANC BB H 1 08:50:23.90 1396.872 00:01:12 Yes
61 Skylinerpl.Com - UT 0214-AU19-UVI 1247 x 44 BB C 3 08:50:24.30 1396.687 00:01:13 Yes
62 Crazy Als Lofts - CO 5533-AU19-CRAZ BB C 1 08:50:25.00 1396.364 00:01:13 Yes
63 G & L Loft - OR 0550-AU19-WPC BC H 1 08:50:25.70 1396.041 00:01:14 Yes
64 Alan Porter - WI 1003-AU19-RRR BBSM C 1 08:50:26.40 1395.718 00:01:15 Yes
65 Baldwin & Tilson - NC 9097-AU19-TENT 4135-6257 DKBB C 2 08:50:27.00 1395.441 00:01:15 Yes
66 Vincent Rooney - VA 9007-IF19-SEA BB C 2 08:50:27.60 1395.164 00:01:16 Yes
67 Life Loft - WA 3023-AU19-CBF Irish Cream BC H 1 08:50:28.20 1394.888 00:01:17 Yes
68 Evolution Racing - UT 7708-AU19-OGN BCSM H 2 08:50:28.60 1394.704 00:01:17 Yes
69 Jones Boys - UT 9330-AU19-SLI 1576-2816 BBSP C 1 08:50:29.70 1394.197 00:01:18 Yes
70 Crazy Als Lofts - CO 5624-AU19-CRAZ DC H 2 08:50:30.30 1393.921 00:01:19 Yes
71 T B Brothers Loft - MS 12708-AU19-JEDD BCSM H 2 08:50:30.60 1393.783 00:01:19 Yes
72 98 M J - PA 0041-AU19-AJL BBSP H 1 08:50:31.20 1393.508 00:01:19 Yes
73 V & G Loft - UT 1982-AU19-GRAY Youko BB H 1 08:50:31.80 1393.232 00:01:20 Yes
74 Skylinerpl.Com - UT 0854-AU19-UVI 368 x 1146 BC H 4 08:50:32.40 1392.956 00:01:21 Yes
75 D G F Loft - UT 0964-AU19-UVI Vinity/86 BB C 1 08:50:33.00 1392.681 00:01:21 Yes
76 Han Lu - TX 0150-AU19-LU BBWF H 1 08:50:33.80 1392.313 00:01:22 Yes
77 Ron Pairan - OH 0426-AU19-LFO BC C 1 08:50:34.30 1392.084 00:01:23 Yes
77 Brook Loft - NC 0623-IF19-CCF BB C 2 08:50:34.30 1392.084 00:01:23 Yes
79 Racine Jun Xiao - WI 1805-AU19-RAC BB H 1 08:50:34.70 1391.900 00:01:23 Yes
80 Columba Loft - GA 9172-AU19-LYNC 3240 X 023 0608 BBSN C 2 08:50:35.40 1391.579 00:01:24 Yes
80 Bryan Maier - PA 0339-IF19-MAIE BB H 1 08:50:35.40 1391.579 00:01:24 Yes
82 A P C Loft - TX 19053-AU19-APC BBTC H 3 08:50:35.70 1391.442 00:01:24 Yes
83 Wessel Family Lofts - CA 3030-AU19-ARC BBSM H 3 08:50:36.40 1391.121 00:01:25 Yes
84 New Era Loft - PA 53106-AU19-ARPU BBSP C 1 08:50:36.80 1390.938 00:01:25 Yes
85 Baldwin & Tilson - NC 9058-AU19-TENT 1303-1104 PEN H 3 08:50:37.20 1390.755 00:01:25 Yes
86 Fassio Loft - UT 9110-AU19-SLI Silver Hassel MLY H 2 08:50:40.00 1389.474 00:01:28 Yes
87 Morningside Racing Loft - TX 1030-AU19-MSRL 17795 x 7043 BBWF H 1 08:50:40.40 1389.291 00:01:29 Yes
87 Crazy Als Lofts - CO 5622-AU19-CRAZ BB C 3 08:50:40.40 1389.291 00:01:29 Yes
89 2nd Chance Loft - ID 19803-AU19-RMR BC H 1 08:50:41.30 1388.880 00:01:30 Yes
90 Milo’s Loft - OK 22907-AU19-ARPU Van Reet DC H 1 08:50:41.90 1388.606 00:01:30 Yes
91 Eastern Pearl Loft - VA 0556-AU19-EPL 🈚️量556=403x182 BBWF C 2 08:50:42.20 1388.469 00:01:31 Yes
92 Marengo Creek Farms - AL 3306-AU19-MCF BB H 3 08:50:42.70 1388.241 00:01:31 Yes
93 B W Loft - ID 19011-AU19-RMR BC C 2 08:50:43.00 1388.104 00:01:31 Yes
93 Kolvenbag & Son - PA 1315-IF19-KOLV BCSM C 8 08:50:43.00 1388.104 00:01:31 Yes
95 Brown & Evans - TX 0133-AU19-WF BB H 1 08:50:43.10 1388.058 00:01:31 Yes
96 Vincent Rooney - VA 9028-IF19-SEA BCC C 3 08:50:43.80 1387.739 00:01:32 Yes
97 Gold Star Loft - CA 1662-AU19-STON BB H 2 08:50:44.50 1387.420 00:01:33 Yes
98 Gold Star Loft - CA 1620-AU19-STON BCSM H 3 08:50:46.60 1386.464 00:01:35 Yes
99 Pyrate - MA 1801-AU19-FR Jealous lover BCWF H 1 08:50:47.40 1386.100 00:01:36 Yes
99 L S U - LA 0293-AU19-LSU BBSM H 1 08:50:47.40 1386.100 00:01:36 Yes

There are 436 bird records

Note: These Race Results are unofficial and subject to change until verified by the Race Committee and declared final.